Details for FedEx at ZGGG




Go Back


Latest METAR
Local Time

ZGGG 280100Z VRB01MPS 9999 FEW023 29/23 Q1010 NOSIG

28/05/2018, 09:29:14

Description
Results
FedEx Logo
Number of Pilots based at ZGGG
0 Pilots Based here
Number of FedEx Flights Departed from ZGGG
0 Flights Departed
Number of FedEx Flights Arrived at ZGGG
0 Flights Arrived
Number of FedEx Schedules Departing from ZGGG
81 Schedules
Number of FedEx Schedules Arriving at ZGGG
79 Schedules
Number of FedEx Schedules Departing from ZGGG availible today
11 Schedules Today
Number of FedEx Schedules Arriving at ZGGG availible today
14 Schedules Today
Average Landing Rate at ZGGG
0 fpm
FedEx Average Landing Rate at ZGGG
0 fpm
Total Fuel Purchased at ZGGG by FedEx
0.00 kgs / 0.00 lbs

Pilots Based at ZGGG


Pilot ID
Pilot Name
Pilot Rank
No. of Flights
No. of Flying Hours
There are no pilots assigned to this hub!   Will you be the first?
Content